| time (UTC) | temp F | wind direction | speed knots | gust knots | rain 1hr in | rain 24hr in | rain mn in | humidity % | barometer mb |
| 20260507145003 | 65 | 265 | 5.2 | 8.7 | 0.00 | 0.00 | 0.00 | 54 | 1012.7 |
| 20260507144503 | 66 | 271 | 4.3 | 8.7 | 0.00 | 0.00 | 0.00 | 53 | 1012.6 |
| 20260507144003 | 67 | 286 | 4.3 | 7.8 | 0.00 | 0.00 | 0.00 | 50 | 1012.7 |
| 20260507143503 | 65 | 276 | 5.2 | 8.7 | 0.00 | 0.00 | 0.00 | 53 | 1012.8 |
| 20260507143003 | 65 | 277 | 4.3 | 8.7 | 0.00 | 0.00 | 0.00 | 53 | 1012.8 |
| 20260507142504 | 66 | 296 | 3.5 | 7.0 | 0.00 | 0.00 | 0.00 | 51 | 1012.7 |
| 20260507142003 | 66 | 293 | 4.3 | 8.7 | 0.00 | 0.00 | 0.00 | 51 | 1012.8 |
| 20260507141503 | 65 | 279 | 5.2 | 8.7 | 0.00 | 0.00 | 0.00 | 50 | 1013.0 |
| 20260507141003 | 66 | 274 | 5.2 | 9.6 | 0.00 | 0.00 | 0.00 | 51 | 1012.9 |
| 20260507140718 | 66 | 276 | 5.2 | 9.6 | 0.00 | 0.00 | 0.00 | 51 | 1012.8 |
| 20260507140003 | 67 | 265 | 5.2 | 9.6 | 0.00 | 0.00 | 0.00 | 49 | 1012.9 |
| 20260507135503 | 68 | 236 | 5.2 | 9.6 | 0.00 | 0.00 | 0.00 | 41 | 1013.0 |
| 20260507135217 | 68 | 234 | 5.2 | 9.6 | 0.00 | 0.00 | 0.00 | 37 | 1012.9 |
| 20260507134718 | 70 | 252 | 4.3 | 9.6 | 0.00 | 0.00 | 0.00 | 35 | 1013.0 |
| 20260507134217 | 70 | 287 | 3.5 | 7.8 | 0.00 | 0.00 | 0.00 | 43 | 1013.0 |
| 20260507133503 | 70 | 238 | 4.3 | 9.6 | 0.00 | 0.00 | 0.00 | 30 | 1012.9 |
| 20260507133217 | 68 | 221 | 4.3 | 9.6 | 0.00 | 0.00 | 0.00 | 32 | 1012.9 |
| 20260507132503 | 69 | 207 | 4.3 | 12.2 | 0.00 | 0.00 | 0.00 | 33 | 1013.2 |
| 20260507132003 | 68 | 218 | 7.0 | 12.2 | 0.00 | 0.00 | 0.00 | 33 | 1013.1 |
| 20260507131503 | 68 | 222 | 5.2 | 11.3 | 0.00 | 0.00 | 0.00 | 33 | 1013.2 |
| 20260507131216 | 68 | 202 | 4.3 | 9.6 | 0.00 | 0.00 | 0.00 | 31 | 1013.3 |
| 20260507130503 | 68 | 205 | 5.2 | 12.2 | 0.00 | 0.00 | 0.00 | 32 | 1013.4 |
| 20260507130003 | 68 | 210 | 5.2 | 12.2 | 0.00 | 0.00 | 0.00 | 32 | 1013.5 |
| 20260507125503 | 68 | 183 | 3.5 | 9.6 | 0.00 | 0.00 | 0.00 | 31 | 1013.5 |
| 20260507125216 | 67 | 171 | 4.3 | 12.2 | 0.00 | 0.00 | 0.00 | 30 | 1013.4 |
| 20260507124503 | 68 | 214 | 6.1 | 13.0 | 0.00 | 0.00 | 0.00 | 29 | 1013.4 |
| 20260507124218 | 68 | 226 | 4.3 | 13.0 | 0.00 | 0.00 | 0.00 | 30 | 1013.5 |
| 20260507123503 | 68 | 201 | 3.5 | 9.6 | 0.00 | 0.00 | 0.00 | 31 | 1013.5 |
| 20260507123003 | 67 | 212 | 3.5 | 9.6 | 0.00 | 0.00 | 0.00 | 31 | 1013.7 |
| 20260507122503 | 67 | 178 | 3.5 | 9.6 | 0.00 | 0.00 | 0.00 | 33 | 1013.8 |
| 20260507122004 | 66 | 198 | 5.2 | 9.6 | 0.00 | 0.00 | 0.00 | 31 | 1013.7 |
| 20260507121717 | 66 | 199 | 6.1 | 13.0 | 0.00 | 0.00 | 0.00 | 31 | 1013.9 |
| 20260507121003 | 67 | 173 | 5.2 | 13.0 | 0.00 | 0.00 | 0.00 | 34 | 1013.8 |
| 20260507120503 | 67 | 173 | 4.3 | 11.3 | 0.00 | 0.00 | 0.00 | 33 | 1013.7 |
| 20260507120004 | 67 | 205 | 5.2 | 13.0 | 0.00 | 0.00 | 0.00 | 29 | 1013.9 |
| 20260507115503 | 66 | 217 | 5.2 | 13.0 | 0.00 | 0.00 | 0.00 | 32 | 1013.9 |
| 20260507115003 | 66 | 214 | 5.2 | 12.2 | 0.00 | 0.00 | 0.00 | 38 | 1013.9 |
| 20260507114503 | 65 | 219 | 6.1 | 12.2 | 0.00 | 0.00 | 0.00 | 37 | 1014.1 |
| 20260507114003 | 66 | 202 | 4.3 | 11.3 | 0.00 | 0.00 | 0.00 | 37 | 1014.0 |
| 20260507113503 | 66 | 202 | 5.2 | 11.3 | 0.00 | 0.00 | 0.00 | 35 | 1013.8 |
| 20260507113004 | 64 | 217 | 5.2 | 12.2 | 0.00 | 0.00 | 0.00 | 37 | 1014.2 |
| 20260507112503 | 67 | 216 | 3.5 | 12.2 | 0.00 | 0.00 | 0.00 | 38 | 1014.0 |
| 20260507112003 | 66 | 227 | 3.5 | 9.6 | 0.00 | 0.00 | 0.00 | 39 | 1014.1 |
| 20260507111504 | 65 | 208 | 4.3 | 9.6 | 0.00 | 0.00 | 0.00 | 39 | 1014.0 |
| 20260507111003 | 65 | 191 | 5.2 | 12.2 | 0.00 | 0.00 | 0.00 | 42 | 1014.1 |
| 20260507110503 | 64 | 202 | 6.1 | 12.2 | 0.00 | 0.00 | 0.00 | 43 | 1014.2 |
| 20260507110003 | 65 | 191 | 6.1 | 13.9 | 0.00 | 0.00 | 0.00 | 42 | 1014.1 |
| 20260507105503 | 64 | 184 | 6.1 | 13.9 | 0.00 | 0.00 | 0.00 | 44 | 1014.2 |
| 20260507105218 | 65 | 189 | 5.2 | 13.0 | 0.00 | 0.00 | 0.00 | 44 | 1014.0 |
| 20260507104503 | 64 | 189 | 7.0 | 13.0 | 0.00 | 0.00 | 0.00 | 44 | 1014.1 |
| 20260507104003 | 64 | 187 | 7.0 | 14.8 | 0.00 | 0.00 | 0.00 | 45 | 1014.3 |
| 20260507103503 | 64 | 195 | 7.0 | 14.8 | 0.00 | 0.00 | 0.00 | 48 | 1014.2 |
| 20260507103003 | 64 | 209 | 7.0 | 14.8 | 0.00 | 0.00 | 0.00 | 48 | 1014.1 |
| 20260507102503 | 63 | 218 | 7.0 | 14.8 | 0.00 | 0.00 | 0.00 | 49 | 1014.3 |
| 20260507102003 | 63 | 225 | 6.1 | 13.9 | 0.00 | 0.00 | 0.00 | 50 | 1014.2 |
| 20260507101718 | 63 | 231 | 7.0 | 13.9 | 0.00 | 0.00 | 0.00 | 50 | 1014.3 |
| 20260507101003 | 62 | 226 | 8.7 | 16.5 | 0.00 | 0.00 | 0.00 | 51 | 1014.1 |
| 20260507100503 | 62 | 223 | 7.8 | 16.5 | 0.00 | 0.00 | 0.00 | 51 | 1014.4 |
| 20260507100003 | 62 | 217 | 7.0 | 13.0 | 0.00 | 0.00 | 0.00 | 52 | 1014.1 |
| 20260507095718 | 61 | 213 | 6.1 | 13.0 | 0.00 | 0.00 | 0.00 | 54 | 1014.1 |
| 20260507095003 | 62 | 199 | 6.1 | 12.2 | 0.00 | 0.00 | 0.00 | 55 | 1014.2 |
| 20260507094716 | 62 | 198 | 6.1 | 12.2 | 0.00 | 0.00 | 0.00 | 55 | 1014.1 |
| 20260507094003 | 60 | 211 | 7.0 | 13.9 | 0.00 | 0.00 | 0.00 | 57 | 1014.1 |
| 20260507093503 | 61 | 219 | 7.0 | 13.9 | 0.00 | 0.00 | 0.00 | 57 | 1014.1 |
| 20260507093003 | 61 | 229 | 7.0 | 13.0 | 0.00 | 0.00 | 0.00 | 58 | 1014.1 |
| 20260507092504 | 61 | 232 | 6.1 | 13.0 | 0.00 | 0.00 | 0.00 | 58 | 1014.2 |
| 20260507092003 | 60 | 215 | 5.2 | 9.6 | 0.00 | 0.00 | 0.00 | 59 | 1014.1 |
| 20260507091503 | 61 | 209 | 6.1 | 11.3 | 0.00 | 0.00 | 0.00 | 59 | 1014.0 |
| 20260507091003 | 60 | 222 | 5.2 | 11.3 | 0.00 | 0.00 | 0.00 | 58 | 1014.1 |
| 20260507090503 | 61 | 230 | 5.2 | 8.7 | 0.00 | 0.00 | 0.00 | 59 | 1014.1 |
| 20260507090004 | 60 | 231 | 5.2 | 8.7 | 0.00 | 0.00 | 0.00 | 58 | 1014.0 |
| 20260507085503 | 60 | 225 | 4.3 | 8.7 | 0.00 | 0.00 | 0.00 | 59 | 1014.1 |
| 20260507085003 | 60 | 215 | 3.5 | 7.8 | 0.00 | 0.00 | 0.00 | 59 | 1014.1 |
| 20260507084503 | 60 | 215 | 3.5 | 7.0 | 0.00 | 0.00 | 0.00 | 59 | 1014.1 |
| 20260507084217 | 60 | 219 | 3.5 | 7.0 | 0.00 | 0.00 | 0.00 | 59 | 1014.0 |
| 20260507083503 | 60 | 230 | 3.5 | 7.8 | 0.00 | 0.00 | 0.00 | 60 | 1014.0 |
| 20260507083217 | 59 | 227 | 3.5 | 7.8 | 0.00 | 0.00 | 0.00 | 60 | 1014.1 |
| 20260507082503 | 60 | 226 | 3.5 | 7.0 | 0.00 | 0.00 | 0.00 | 60 | 1014.0 |
| 20260507082217 | 59 | 222 | 3.5 | 6.1 | 0.00 | 0.00 | 0.00 | 61 | 1014.1 |
| 20260507081503 | 59 | 186 | 2.6 | 8.7 | 0.00 | 0.00 | 0.00 | 60 | 1014.0 |
| 20260507081003 | 59 | 191 | 2.6 | 7.0 | 0.00 | 0.00 | 0.00 | 60 | 1014.2 |
| 20260507080718 | 58 | 181 | 2.6 | 7.0 | 0.00 | 0.00 | 0.00 | 62 | 1014.0 |
| 20260507080004 | 60 | 145 | 0.9 | 3.5 | 0.00 | 0.00 | 0.00 | 59 | 1014.0 |
| 20260507075503 | 59 | 157 | 1.7 | 5.2 | 0.00 | 0.00 | 0.00 | 60 | 1013.8 |
| 20260507075003 | 58 | 151 | 2.6 | 6.1 | 0.00 | 0.00 | 0.00 | 65 | 1013.8 |
| 20260507074503 | 58 | 145 | 3.5 | 6.1 | 0.00 | 0.00 | 0.00 | 67 | 1013.8 |
| 20260507074003 | 57 | 146 | 3.5 | 6.1 | 0.00 | 0.00 | 0.00 | 69 | 1013.7 |
| 20260507073503 | 56 | 142 | 2.6 | 6.1 | 0.00 | 0.00 | 0.00 | 71 | 1013.8 |
| 20260507073004 | 54 | 136 | 1.7 | 3.5 | 0.00 | 0.00 | 0.00 | 77 | 1013.7 |
| 20260507072503 | 53 | 158 | 0.9 | 1.7 | 0.00 | 0.00 | 0.00 | 80 | 1013.7 |
| 20260507072003 | 52 | 174 | 0.0 | 1.7 | 0.00 | 0.00 | 0.00 | 81 | 1013.9 |
| 20260507071717 | 52 | 0 | 0.0 | 0.0 | 0.00 | 0.00 | 0.00 | 81 | 1013.8 |
| 20260507071003 | 51 | 220 | 0.0 | 0.9 | 0.00 | 0.00 | 0.00 | 81 | 1014.1 |
| 20260507070503 | 50 | 218 | 0.0 | 1.7 | 0.00 | 0.00 | 0.00 | 82 | 1014.2 |
| 20260507070218 | 50 | 224 | 0.9 | 2.6 | 0.00 | 0.00 | 0.00 | 82 | 1014.1 |
| 20260507065717 | 50 | 230 | 0.9 | 2.6 | 0.00 | 0.00 | 0.00 | 82 | 1014.1 |
| 20260507065003 | 50 | 236 | 0.9 | 1.7 | 0.00 | 0.00 | 0.00 | 82 | 1014.0 |
| 20260507064503 | 50 | 240 | 0.0 | 1.7 | 0.00 | 0.00 | 0.00 | 83 | 1013.9 |
| 20260507064003 | 49 | 218 | 0.0 | 0.9 | 0.00 | 0.00 | 0.00 | 83 | 1013.8 |
| 20260507063503 | 49 | 200 | 0.0 | 1.7 | 0.00 | 0.00 | 0.00 | 84 | 1013.9 |
| 20260507063003 | 49 | 179 | 0.9 | 1.7 | 0.00 | 0.00 | 0.00 | 83 | 1013.8 |
| 20260507062503 | 49 | 90 | 0.0 | 1.7 | 0.00 | 0.00 | 0.00 | 82 | 1013.7 |
| 20260507062003 | 49 | 187 | 0.0 | 1.7 | 0.00 | 0.00 | 0.00 | 83 | 1013.6 |
| 20260507061503 | 48 | 185 | 0.0 | 1.7 | 0.00 | 0.00 | 0.00 | 83 | 1013.6 |
| 20260507061003 | 48 | 188 | 0.0 | 0.9 | 0.00 | 0.00 | 0.00 | 83 | 1013.5 |
| 20260507060503 | 48 | 196 | 0.0 | 0.9 | 0.00 | 0.00 | 0.00 | 84 | 1013.4 |
| 20260507060003 | 47 | 200 | 0.0 | 1.7 | 0.00 | 0.00 | 0.00 | 84 | 1013.5 |
| 20260507055717 | 47 | 188 | 0.9 | 2.6 | 0.00 | 0.00 | 0.00 | 83 | 1013.4 |
| 20260507055003 | 48 | 72 | 0.9 | 2.6 | 0.00 | 0.00 | 0.00 | 81 | 1013.4 |
| 20260507054503 | 48 | 99 | 0.9 | 1.7 | 0.00 | 0.00 | 0.00 | 80 | 1013.2 |
| 20260507054218 | 49 | 147 | 0.9 | 2.6 | 0.00 | 0.00 | 0.00 | 79 | 1013.2 |
| 20260507053503 | 49 | 132 | 0.9 | 2.6 | 0.00 | 0.00 | 0.00 | 80 | 1013.0 |
| 20260507053004 | 48 | 128 | 0.0 | 1.7 | 0.00 | 0.00 | 0.00 | 81 | 1013.1 |
| 20260507052503 | 48 | 162 | 0.0 | 1.7 | 0.00 | 0.00 | 0.00 | 82 | 1012.8 |
| 20260507052003 | 48 | 238 | 0.9 | 2.6 | 0.00 | 0.00 | 0.00 | 83 | 1012.7 |
| 20260507051717 | 48 | 247 | 0.9 | 2.6 | 0.00 | 0.00 | 0.00 | 83 | 1012.8 |
| 20260507051003 | 48 | 128 | 0.9 | 2.6 | 0.00 | 0.00 | 0.00 | 83 | 1012.6 |
| 20260507050503 | 48 | 100 | 0.9 | 3.5 | 0.00 | 0.00 | 0.00 | 83 | 1012.6 |
| 20260507050003 | 48 | 86 | 0.9 | 3.5 | 0.00 | 0.00 | 0.00 | 84 | 1012.6 |
| 20260507045503 | 47 | 122 | 0.9 | 3.5 | 0.00 | 0.00 | 0.00 | 84 | 1012.7 |
| 20260507045003 | 47 | 109 | 0.9 | 3.5 | 0.00 | 0.00 | 0.00 | 84 | 1012.6 |
| 20260507044716 | 47 | 74 | 0.9 | 3.5 | 0.00 | 0.00 | 0.00 | 85 | 1012.5 |
| 20260507044003 | 46 | 205 | 0.0 | 1.7 | 0.00 | 0.00 | 0.00 | 86 | 1012.8 |
| 20260507043503 | 46 | 212 | 0.0 | 1.7 | 0.00 | 0.00 | 0.00 | 85 | 1012.6 |
| 20260507043003 | 46 | 202 | 0.0 | 1.7 | 0.00 | 0.00 | 0.00 | 85 | 1012.8 |
| 20260507042718 | 46 | 182 | 0.0 | 1.7 | 0.00 | 0.00 | 0.00 | 85 | 1012.9 |
| 20260507042217 | 46 | 176 | 0.0 | 0.9 | 0.00 | 0.00 | 0.00 | 85 | 1012.7 |
| 20260507041503 | 46 | 185 | 0.0 | 2.6 | 0.00 | 0.00 | 0.00 | 85 | 1012.8 |
| 20260507041003 | 46 | 185 | 0.0 | 2.6 | 0.00 | 0.00 | 0.00 | 84 | 1012.9 |
| 20260507040503 | 46 | 210 | 0.0 | 1.7 | 0.00 | 0.00 | 0.00 | 84 | 1012.9 |
| 20260507040003 | 46 | 210 | 0.0 | 1.7 | 0.00 | 0.00 | 0.00 | 85 | 1012.9 |
| 20260507035503 | 46 | 214 | 0.0 | 2.6 | 0.00 | 0.00 | 0.00 | 85 | 1012.9 |
| 20260507035217 | 45 | 220 | 0.0 | 2.6 | 0.00 | 0.00 | 0.00 | 86 | 1012.7 |
| 20260507034503 | 46 | 216 | 0.0 | 1.7 | 0.00 | 0.00 | 0.00 | 85 | 1012.9 |
| 20260507034003 | 46 | 212 | 0.0 | 1.7 | 0.00 | 0.00 | 0.00 | 85 | 1012.8 |
| 20260507033718 | 46 | 215 | 0.0 | 1.7 | 0.00 | 0.00 | 0.00 | 85 | 1012.9 |
| 20260507033003 | 46 | 198 | 0.0 | 0.9 | 0.00 | 0.00 | 0.00 | 86 | 1012.7 |
| 20260507032504 | 45 | 195 | 0.0 | 2.6 | 0.00 | 0.00 | 0.00 | 86 | 1012.7 |
| 20260507032217 | 45 | 208 | 0.9 | 2.6 | 0.00 | 0.00 | 0.00 | 86 | 1012.9 |
| 20260507031503 | 46 | 223 | 0.9 | 2.6 | 0.00 | 0.00 | 0.00 | 85 | 1012.8 |
| 20260507031003 | 46 | 218 | 0.0 | 1.7 | 0.00 | 0.00 | 0.00 | 85 | 1012.7 |
| 20260507030718 | 46 | 217 | 0.0 | 1.7 | 0.00 | 0.00 | 0.00 | 85 | 1012.8 |
| 20260507030217 | 46 | 229 | 0.0 | 1.7 | 0.00 | 0.00 | 0.00 | 86 | 1012.8 |
| 20260507025503 | 46 | 226 | 0.9 | 1.7 | 0.00 | 0.00 | 0.00 | 86 | 1012.7 |
| 20260507025003 | 46 | 216 | 0.0 | 1.7 | 0.00 | 0.00 | 0.00 | 86 | 1012.8 |
| 20260507024503 | 46 | 205 | 0.0 | 0.9 | 0.00 | 0.00 | 0.00 | 85 | 1012.7 |
| 20260507024003 | 46 | 197 | 0.0 | 1.7 | 0.00 | 0.00 | 0.00 | 86 | 1012.6 |
| 20260507023503 | 46 | 185 | 0.0 | 1.7 | 0.00 | 0.00 | 0.00 | 86 | 1012.6 |
| 20260507023003 | 46 | 197 | 0.0 | 0.9 | 0.00 | 0.00 | 0.00 | 85 | 1012.7 |
| 20260507022503 | 46 | 212 | 0.0 | 0.9 | 0.00 | 0.00 | 0.00 | 85 | 1012.5 |
| 20260507022003 | 46 | 217 | 0.0 | 0.9 | 0.00 | 0.00 | 0.00 | 84 | 1012.6 |
| 20260507021503 | 47 | 214 | 0.0 | 0.9 | 0.00 | 0.00 | 0.00 | 84 | 1012.5 |
| 20260507021003 | 47 | 219 | 0.0 | 0.9 | 0.00 | 0.00 | 0.00 | 84 | 1012.6 |
| 20260507020503 | 47 | 221 | 0.0 | 0.9 | 0.00 | 0.00 | 0.00 | 84 | 1012.8 |
| 20260507020218 | 47 | 221 | 0.0 | 0.9 | 0.00 | 0.00 | 0.00 | 84 | 1012.6 |
| 20260507015503 | 47 | 200 | 0.0 | 1.7 | 0.00 | 0.00 | 0.00 | 83 | 1012.8 |
| 20260507015003 | 47 | 198 | 0.0 | 1.7 | 0.00 | 0.00 | 0.00 | 83 | 1012.8 |
| 20260507014503 | 48 | 199 | 0.0 | 1.7 | 0.00 | 0.00 | 0.00 | 84 | 1012.5 |
| 20260507014003 | 47 | 200 | 0.9 | 1.7 | 0.00 | 0.00 | 0.00 | 85 | 1012.8 |
| 20260507013503 | 46 | 194 | 0.9 | 1.7 | 0.00 | 0.00 | 0.00 | 85 | 1013.0 |
| 20260507013003 | 47 | 193 | 0.9 | 2.6 | 0.00 | 0.00 | 0.00 | 85 | 1012.9 |
| 20260507012503 | 46 | 183 | 0.9 | 3.5 | 0.00 | 0.00 | 0.00 | 85 | 1013.0 |
| 20260507012003 | 47 | 177 | 0.9 | 3.5 | 0.00 | 0.00 | 0.00 | 83 | 1013.1 |
| 20260507011503 | 47 | 205 | 0.0 | 1.7 | 0.00 | 0.00 | 0.00 | 83 | 1013.0 |
| 20260507010717 | 47 | 218 | 0.0 | 0.9 | 0.00 | 0.00 | 0.00 | 84 | 1013.2 |
| 20260507010003 | 47 | 219 | 0.0 | 1.7 | 0.00 | 0.00 | 0.00 | 83 | 1013.1 |
| 20260507005503 | 47 | 219 | 0.9 | 1.7 | 0.00 | 0.00 | 0.00 | 83 | 1013.2 |
| 20260507005003 | 47 | 222 | 0.9 | 1.7 | 0.00 | 0.00 | 0.00 | 83 | 1013.3 |
| 20260507004503 | 46 | 220 | 0.9 | 1.7 | 0.00 | 0.00 | 0.00 | 84 | 1013.3 |
| 20260507004003 | 47 | 212 | 0.9 | 1.7 | 0.00 | 0.00 | 0.00 | 84 | 1013.3 |
| 20260507003717 | 47 | 208 | 0.9 | 1.7 | 0.00 | 0.00 | 0.00 | 84 | 1013.3 |
| 20260507003003 | 47 | 213 | 0.9 | 1.7 | 0.00 | 0.00 | 0.00 | 83 | 1013.4 |
| 20260507002503 | 47 | 218 | 0.9 | 1.7 | 0.00 | 0.00 | 0.00 | 82 | 1013.6 |
| 20260507002218 | 47 | 220 | 0.9 | 1.7 | 0.00 | 0.00 | 0.00 | 82 | 1013.5 |
| 20260507001503 | 48 | 230 | 1.7 | 2.6 | 0.00 | 0.00 | 0.00 | 81 | 1013.7 |
| 20260507001003 | 47 | 227 | 0.9 | 2.6 | 0.00 | 0.00 | 0.00 | 82 | 1013.6 |
| 20260507000503 | 47 | 223 | 0.9 | 1.7 | 0.00 | 0.00 | 0.00 | 82 | 1013.5 |
| 20260507000003 | 47 | 214 | 0.0 | 1.7 | 0.00 | 0.00 | 0.00 | 83 | 1013.6 |
| 20260506235503 | 47 | 202 | 0.0 | 0.9 | 0.00 | 0.00 | 0.00 | 83 | 1013.7 |
| 20260506235003 | 48 | 193 | 0.0 | 1.7 | 0.00 | 0.00 | 0.00 | 82 | 1013.4 |
| 20260506234503 | 48 | 198 | 0.0 | 1.7 | 0.00 | 0.00 | 0.00 | 82 | 1013.7 |
| 20260506234003 | 48 | 204 | 0.0 | 0.9 | 0.00 | 0.00 | 0.00 | 82 | 1013.7 |
| 20260506233503 | 48 | 213 | 0.0 | 0.9 | 0.00 | 0.00 | 0.00 | 80 | 1013.6 |
| 20260506233218 | 49 | 215 | 0.0 | 0.9 | 0.00 | 0.00 | 0.00 | 81 | 1013.8 |
| 20260506232718 | 48 | 217 | 0.0 | 0.9 | 0.00 | 0.00 | 0.00 | 81 | 1014.0 |
| 20260506232217 | 49 | 0 | 0.0 | 0.0 | 0.00 | 0.00 | 0.00 | 80 | 1013.9 |
| 20260506231503 | 49 | 185 | 0.0 | 0.9 | 0.00 | 0.00 | 0.00 | 80 | 1013.7 |
| 20260506231003 | 49 | 192 | 0.0 | 0.9 | 0.00 | 0.00 | 0.00 | 80 | 1013.9 |
| 20260506230718 | 49 | 196 | 0.0 | 0.9 | 0.00 | 0.00 | 0.00 | 80 | 1013.8 |
| 20260506230003 | 50 | 200 | 0.0 | 1.7 | 0.00 | 0.00 | 0.00 | 79 | 1013.8 |
| 20260506225503 | 50 | 206 | 0.0 | 1.7 | 0.00 | 0.00 | 0.00 | 78 | 1013.7 |
| 20260506225003 | 50 | 225 | 0.0 | 0.9 | 0.00 | 0.00 | 0.00 | 77 | 1013.9 |
| 20260506224503 | 50 | 0 | 0.0 | 0.0 | 0.00 | 0.00 | 0.00 | 77 | 1013.9 |
| 20260506224003 | 50 | 191 | 0.0 | 0.9 | 0.00 | 0.00 | 0.00 | 78 | 1014.0 |
| 20260506223503 | 50 | 192 | 0.0 | 0.9 | 0.00 | 0.00 | 0.00 | 78 | 1014.0 |
| 20260506223003 | 51 | 198 | 0.0 | 0.9 | 0.00 | 0.00 | 0.00 | 76 | 1014.0 |
| 20260506222503 | 51 | 217 | 0.0 | 1.7 | 0.00 | 0.00 | 0.00 | 76 | 1013.9 |
| 20260506222003 | 51 | 217 | 0.9 | 1.7 | 0.00 | 0.00 | 0.00 | 76 | 1014.0 |
| 20260506221504 | 51 | 218 | 0.9 | 1.7 | 0.00 | 0.00 | 0.00 | 74 | 1013.9 |
| 20260506221003 | 52 | 0 | 0.0 | 0.0 | 0.00 | 0.00 | 0.00 | 74 | 1013.9 |
| 20260506220503 | 52 | 224 | 0.0 | 1.7 | 0.00 | 0.00 | 0.00 | 74 | 1014.0 |
| 20260506220003 | 52 | 224 | 0.0 | 1.7 | 0.00 | 0.00 | 0.00 | 73 | 1013.9 |
| 20260506215503 | 52 | 218 | 0.0 | 1.7 | 0.00 | 0.00 | 0.00 | 73 | 1014.0 |
| 20260506215003 | 52 | 212 | 0.0 | 0.9 | 0.00 | 0.00 | 0.00 | 74 | 1014.0 |
| 20260506214503 | 52 | 211 | 0.0 | 0.9 | 0.00 | 0.00 | 0.00 | 74 | 1013.8 |
| 20260506214003 | 53 | 188 | 0.0 | 1.7 | 0.00 | 0.00 | 0.00 | 72 | 1013.7 |
| 20260506213718 | 53 | 183 | 0.0 | 1.7 | 0.00 | 0.00 | 0.00 | 72 | 1013.7 |
| 20260506213003 | 53 | 157 | 1.7 | 2.6 | 0.00 | 0.00 | 0.00 | 71 | 1013.8 |
| 20260506212503 | 53 | 151 | 1.7 | 2.6 | 0.00 | 0.00 | 0.00 | 70 | 1013.8 |
| 20260506212217 | 53 | 156 | 0.9 | 2.6 | 0.00 | 0.00 | 0.00 | 70 | 1014.0 |
| 20260506211503 | 53 | 181 | 0.0 | 1.7 | 0.00 | 0.00 | 0.00 | 70 | 1013.9 |
| 20260506211003 | 53 | 201 | 0.0 | 0.9 | 0.00 | 0.00 | 0.00 | 71 | 1013.7 |
| 20260506210503 | 54 | 187 | 0.0 | 1.7 | 0.00 | 0.00 | 0.00 | 70 | 1013.9 |
| 20260506210003 | 54 | 188 | 0.9 | 1.7 | 0.00 | 0.00 | 0.00 | 69 | 1013.7 |
| 20260506205503 | 55 | 186 | 0.9 | 1.7 | 0.00 | 0.00 | 0.00 | 68 | 1013.7 |
| 20260506205003 | 56 | 168 | 0.9 | 1.7 | 0.00 | 0.00 | 0.00 | 67 | 1013.7 |
| 20260506204503 | 56 | 169 | 0.9 | 1.7 | 0.00 | 0.00 | 0.00 | 66 | 1013.6 |
| 20260506204003 | 56 | 188 | 0.0 | 1.7 | 0.00 | 0.00 | 0.00 | 67 | 1013.6 |
| 20260506203503 | 56 | 188 | 0.0 | 1.7 | 0.00 | 0.00 | 0.00 | 65 | 1013.6 |
| 20260506203003 | 58 | 257 | 0.0 | 0.9 | 0.00 | 0.00 | 0.00 | 63 | 1013.4 |
| 20260506202503 | 59 | 246 | 0.0 | 0.9 | 0.00 | 0.00 | 0.00 | 59 | 1013.4 |
| 20260506202218 | 59 | 251 | 0.0 | 0.9 | 0.00 | 0.00 | 0.00 | 58 | 1013.3 |
| 20260506201503 | 59 | 250 | 0.0 | 0.9 | 0.00 | 0.00 | 0.00 | 58 | 1013.2 |
| 20260506201003 | 60 | 285 | 0.0 | 2.6 | 0.00 | 0.00 | 0.00 | 58 | 1013.3 |
| 20260506200503 | 60 | 314 | 0.9 | 2.6 | 0.00 | 0.00 | 0.00 | 56 | 1013.0 |
| 20260506200003 | 60 | 288 | 0.9 | 5.2 | 0.00 | 0.00 | 0.00 | 56 | 1013.0 |
| 20260506195503 | 60 | 267 | 1.7 | 5.2 | 0.00 | 0.00 | 0.00 | 56 | 1013.0 |
| 20260506195003 | 60 | 266 | 1.7 | 3.5 | 0.00 | 0.00 | 0.00 | 56 | 1013.0 |
| 20260506194503 | 60 | 263 | 2.6 | 6.1 | 0.00 | 0.00 | 0.00 | 55 | 1012.9 |
| 20260506194003 | 61 | 264 | 2.6 | 6.1 | 0.00 | 0.00 | 0.00 | 55 | 1012.8 |
| 20260506193717 | 61 | 270 | 2.6 | 6.1 | 0.00 | 0.00 | 0.00 | 55 | 1012.7 |
| 20260506193003 | 61 | 265 | 3.5 | 6.1 | 0.00 | 0.00 | 0.00 | 55 | 1012.6 |
| 20260506192504 | 61 | 266 | 3.5 | 6.1 | 0.00 | 0.00 | 0.00 | 54 | 1012.8 |
| 20260506192218 | 62 | 265 | 3.5 | 6.1 | 0.00 | 0.00 | 0.00 | 54 | 1012.6 |
| 20260506191503 | 62 | 263 | 4.3 | 8.7 | 0.00 | 0.00 | 0.00 | 53 | 1012.7 |
| 20260506191003 | 62 | 269 | 5.2 | 9.6 | 0.00 | 0.00 | 0.00 | 53 | 1012.6 |
| 20260506190503 | 63 | 262 | 5.2 | 9.6 | 0.00 | 0.00 | 0.00 | 52 | 1012.5 |
| 20260506190004 | 63 | 257 | 5.2 | 9.6 | 0.00 | 0.00 | 0.00 | 51 | 1012.5 |
| 20260506185717 | 64 | 254 | 5.2 | 9.6 | 0.00 | 0.00 | 0.00 | 50 | 1012.2 |
| 20260506185003 | 65 | 268 | 5.2 | 11.3 | 0.00 | 0.00 | 0.00 | 49 | 1012.2 |
| 20260506184503 | 65 | 277 | 6.1 | 11.3 | 0.00 | 0.00 | 0.00 | 48 | 1012.3 |
| 20260506184003 | 66 | 286 | 4.3 | 11.3 | 0.00 | 0.00 | 0.00 | 46 | 1012.1 |
| 20260506183503 | 67 | 287 | 3.5 | 7.0 | 0.00 | 0.00 | 0.00 | 40 | 1012.1 |
| 20260506183003 | 68 | 276 | 2.6 | 7.0 | 0.00 | 0.00 | 0.00 | 40 | 1012.1 |
| 20260506182716 | 68 | 279 | 2.6 | 7.0 | 0.00 | 0.00 | 0.00 | 39 | 1011.9 |
| 20260506182003 | 68 | 288 | 3.5 | 6.1 | 0.00 | 0.00 | 0.00 | 39 | 1012.0 |
| 20260506181503 | 68 | 284 | 3.5 | 7.8 | 0.00 | 0.00 | 0.00 | 38 | 1012.0 |
| 20260506181003 | 68 | 280 | 3.5 | 7.8 | 0.00 | 0.00 | 0.00 | 38 | 1012.0 |
| 20260506180503 | 68 | 289 | 4.3 | 8.7 | 0.00 | 0.00 | 0.00 | 38 | 1012.0 |
| 20260506180004 | 68 | 279 | 3.5 | 8.7 | 0.00 | 0.00 | 0.00 | 38 | 1011.9 |
| 20260506175503 | 69 | 265 | 3.5 | 7.8 | 0.00 | 0.00 | 0.00 | 37 | 1012.1 |
| 20260506175003 | 69 | 276 | 3.5 | 6.1 | 0.00 | 0.00 | 0.00 | 37 | 1012.1 |
| 20260506174503 | 69 | 282 | 3.5 | 6.1 | 0.00 | 0.00 | 0.00 | 37 | 1012.2 |
| 20260506174003 | 69 | 271 | 3.5 | 7.0 | 0.00 | 0.00 | 0.00 | 37 | 1012.2 |
| 20260506173503 | 69 | 275 | 4.3 | 8.7 | 0.00 | 0.00 | 0.00 | 37 | 1012.2 |
| 20260506173003 | 69 | 282 | 5.2 | 8.7 | 0.00 | 0.00 | 0.00 | 37 | 1012.1 |
| 20260506172503 | 69 | 279 | 3.5 | 8.7 | 0.00 | 0.00 | 0.00 | 37 | 1012.2 |
| 20260506172003 | 70 | 274 | 2.6 | 6.1 | 0.00 | 0.00 | 0.00 | 35 | 1012.2 |
| 20260506171503 | 70 | 281 | 2.6 | 6.1 | 0.00 | 0.00 | 0.00 | 36 | 1012.3 |
| 20260506171004 | 70 | 268 | 2.6 | 6.1 | 0.00 | 0.00 | 0.00 | 36 | 1012.2 |
| 20260506170503 | 70 | 277 | 3.5 | 7.0 | 0.00 | 0.00 | 0.00 | 36 | 1012.2 |
| 20260506170217 | 70 | 279 | 4.3 | 7.0 | 0.00 | 0.00 | 0.00 | 35 | 1012.3 |
| 20260506165718 | 70 | 279 | 3.5 | 7.8 | 0.00 | 0.00 | 0.00 | 35 | 1012.2 |
| 20260506165003 | 71 | 302 | 2.6 | 6.1 | 0.00 | 0.00 | 0.00 | 35 | 1012.2 |
| 20260506164503 | 70 | 292 | 2.6 | 6.1 | 0.00 | 0.00 | 0.00 | 35 | 1012.3 |
| 20260506164003 | 70 | 259 | 2.6 | 6.1 | 0.00 | 0.00 | 0.00 | 35 | 1012.4 |
| 20260506163503 | 70 | 258 | 1.7 | 6.1 | 0.00 | 0.00 | 0.00 | 36 | 1012.3 |
| 20260506163003 | 71 | 277 | 1.7 | 6.1 | 0.00 | 0.00 | 0.00 | 35 | 1012.3 |
| 20260506162718 | 71 | 284 | 1.7 | 3.5 | 0.00 | 0.00 | 0.00 | 33 | 1012.4 |
| 20260506162003 | 71 | 310 | 1.7 | 5.2 | 0.00 | 0.00 | 0.00 | 34 | 1012.6 |
| 20260506161503 | 70 | 286 | 1.7 | 5.2 | 0.00 | 0.00 | 0.00 | 34 | 1012.4 |
| 20260506161003 | 70 | 290 | 3.5 | 7.8 | 0.00 | 0.00 | 0.00 | 35 | 1012.5 |
| 20260506160503 | 70 | 293 | 3.5 | 7.8 | 0.00 | 0.00 | 0.00 | 35 | 1012.4 |
| 20260506160003 | 70 | 279 | 3.5 | 7.8 | 0.00 | 0.00 | 0.00 | 35 | 1012.5 |
| 20260506155503 | 70 | 280 | 2.6 | 7.0 | 0.00 | 0.00 | 0.00 | 35 | 1012.5 |
| 20260506155003 | 71 | 289 | 2.6 | 6.1 | 0.00 | 0.00 | 0.00 | 35 | 1012.6 |
| 20260506154503 | 69 | 278 | 3.5 | 8.7 | 0.00 | 0.00 | 0.00 | 35 | 1012.6 |
| 20260506154003 | 70 | 292 | 3.5 | 8.7 | 0.00 | 0.00 | 0.00 | 36 | 1012.8 |
| 20260506153503 | 70 | 304 | 3.5 | 7.8 | 0.00 | 0.00 | 0.00 | 35 | 1012.6 |
| 20260506153003 | 70 | 290 | 3.5 | 7.8 | 0.00 | 0.00 | 0.00 | 35 | 1012.6 |
| 20260506152503 | 71 | 295 | 2.6 | 7.8 | 0.00 | 0.00 | 0.00 | 34 | 1012.7 |
| 20260506152218 | 70 | 298 | 3.5 | 7.8 | 0.00 | 0.00 | 0.00 | 35 | 1012.8 |
| 20260506151503 | 70 | 284 | 3.5 | 7.8 | 0.00 | 0.00 | 0.00 | 35 | 1012.8 |
| 20260506151003 | 69 | 280 | 3.5 | 7.8 | 0.00 | 0.00 | 0.00 | 35 | 1012.8 |
| 20260506150503 | 71 | 293 | 1.7 | 6.1 | 0.00 | 0.00 | 0.00 | 34 | 1013.1 |
| 20260506150003 | 72 | 282 | 2.6 | 6.1 | 0.00 | 0.00 | 0.00 | 33 | 1013.0 |
| 20260506145503 | 70 | 260 | 3.5 | 8.7 | 0.00 | 0.00 | 0.00 | 33 | 1013.1 |
| 20260506145218 | 70 | 257 | 4.3 | 9.6 | 0.00 | 0.00 | 0.00 | 35 | 1012.9 |